EW6135 Weather Reports


Display with metric or nautical units.
time (UTC)temp
F
wind
direction
speed
MPH
gust
MPH
rain 1hr
in
rain 24hr
in
rain mn
in
humidity
%
barometer
mb
20260901192527 90 94 1.0 8.0 0.00 0.04 0.02 70 1017.0
20260901191549 91 143 1.0 4.0 0.00 0.04 0.02 69 1017.1
20260901191127 91 179 0.0 4.0 0.00 0.04 0.02 71 1017.2
20260901190528 91 130 1.0 4.0 0.00 0.04 0.02 69 1017.1
20260901190025 91 110 1.0 4.0 0.00 0.04 0.02 70 1017.1
20260901185526 91 115 0.0 6.0 0.00 0.04 0.02 70 1017.2
20260901185025 91 178 0.0 6.0 0.00 0.04 0.02 71 1017.2
20260901184527 91 200 1.0 4.0 0.00 0.04 0.02 70 1017.3
20260901184024 91 87 1.0 4.0 0.00 0.04 0.02 73 1017.3
20260901183526 91 104 1.0 7.0 0.00 0.04 0.02 73 1017.3
20260901183023 91 243 0.0 6.0 0.00 0.04 0.02 73 1017.3
20260901182524 92 176 0.0 4.0 0.00 0.04 0.02 69 1017.3
20260901181521 91 247 1.0 5.0 0.00 0.04 0.02 68 1017.3
20260901181020 92 122 1.0 5.0 0.00 0.04 0.02 71 1017.3
20260901180519 92 122 1.0 4.0 0.00 0.04 0.02 68 1017.3
20260901180018 91 290 0.0 5.0 0.00 0.04 0.02 68 1017.3
20260901175517 91 250 2.0 5.0 0.00 0.04 0.02 62 1017.4
20260901175020 92 80 1.0 3.0 0.00 0.04 0.02 60 1017.4
20260901174515 92 247 0.0 2.0 0.00 0.04 0.02 57 1017.5
20260901174017 93 247 0.0 3.0 0.00 0.04 0.02 56 1017.5
20260901173513 93 240 0.0 3.0 0.00 0.04 0.02 55 1017.6
20260901173019 92 252 0.0 3.0 0.00 0.04 0.02 53 1017.6
20260901172512 92 252 0.0 3.0 0.00 0.04 0.02 55 1017.7
20260901171518 92 229 0.0 2.0 0.00 0.04 0.02 57 1017.8
20260901171009 92 211 0.0 3.0 0.00 0.04 0.02 58 1017.8
20260901170508 91 250 0.0 4.0 0.00 0.04 0.02 59 1017.8
20260901170008 91 272 1.0 3.0 0.00 0.04 0.02 63 1017.8
20260901165506 91 248 0.0 4.0 0.00 0.04 0.02 63 1017.9
20260901165005 91 240 1.0 4.0 0.00 0.04 0.02 62 1017.9
20260901164513 90 81 0.0 3.0 0.00 0.04 0.02 65 1017.9
20260901164004 90 101 0.0 2.0 0.00 0.04 0.02 66 1017.9
20260901163504 90 250 0.0 0.0 0.00 0.04 0.02 69 1017.9
20260901163006 90 254 0.0 0.0 0.00 0.04 0.02 66 1017.9
20260901162501 89 98 0.0 4.0 0.00 0.04 0.02 70 1018.0
20260901161611 89 30 0.0 4.0 0.00 0.04 0.02 69 1018.1
20260901161501 89 63 0.0 4.0 0.00 0.04 0.02 70 1018.1
20260901161102 88 44 1.0 4.0 0.00 0.04 0.02 67 1018.1
20260901160601 88 30 0.0 3.0 0.00 0.04 0.02 70 1018.1
20260901160110 88 18 0.0 3.0 0.00 0.04 0.02 67 1018.2
20260901155559 88 114 0.0 3.0 0.00 0.04 0.02 72 1018.2
20260901155102 88 73 1.0 3.0 0.00 0.04 0.02 72 1018.4
20260901154601 87 65 0.0 5.0 0.00 0.04 0.02 71 1018.4
20260901154059 88 75 1.0 5.0 0.00 0.04 0.02 73 1018.3
20260901153558 88 56 0.0 4.0 0.00 0.04 0.02 76 1018.4
20260901153056 88 16 0.0 4.0 0.00 0.04 0.02 77 1018.4
20260901152557 87 41 0.0 4.0 0.00 0.04 0.02 75 1018.4
20260901151556 87 21 1.0 4.0 0.00 0.04 0.02 76 1018.6
20260901151059 87 216 0.0 3.0 0.00 0.04 0.02 76 1018.6
20260901150555 87 257 0.0 2.0 0.00 0.04 0.02 77 1018.7
20260901150055 87 116 0.0 4.0 0.00 0.04 0.02 79 1018.7
20260901145553 86 257 0.0 4.0 0.00 0.04 0.02 79 1018.8
20260901145054 86 250 1.0 4.0 0.00 0.04 0.02 78 1018.8
20260901144553 86 258 0.0 4.0 0.00 0.04 0.02 78 1018.7
20260901144056 86 250 2.0 4.0 0.00 0.04 0.02 79 1018.7
20260901143553 86 262 1.0 4.0 0.00 0.04 0.02 80 1018.8
20260901143052 86 26 0.0 4.0 0.00 0.04 0.02 80 1018.8
20260901142550 86 15 1.0 3.0 0.00 0.04 0.02 80 1018.8
20260901141552 85 250 1.0 5.0 0.00 0.04 0.02 82 1018.8
20260901141051 85 264 0.0 3.0 0.00 0.04 0.02 84 1018.8
20260901140547 84 221 0.0 3.0 0.00 0.04 0.02 85 1018.7
20260901140047 83 253 0.0 4.0 0.00 0.04 0.02 86 1018.7
20260901135547 83 243 0.0 6.0 0.00 0.04 0.02 86 1018.7
20260901135046 82 5 2.0 6.0 0.00 0.04 0.02 87 1018.7
20260901134545 82 48 1.0 5.0 0.00 0.04 0.02 87 1018.7
20260901134043 82 263 0.0 6.0 0.00 0.04 0.02 88 1018.7
20260901133543 82 18 2.0 6.0 0.00 0.04 0.02 89 1018.8
20260901133042 82 30 1.0 5.0 0.00 0.04 0.02 90 1018.8
20260901132545 81 257 0.0 3.0 0.00 0.04 0.02 95 1018.8
20260901131539 80 254 0.0 4.0 0.00 0.04 0.02 95 1018.7
20260901131038 80 236 1.0 4.0 0.00 0.04 0.02 96 1018.7
20260901130538 79 253 1.0 3.0 0.00 0.04 0.02 97 1018.8
20260901130038 80 253 0.0 3.0 0.00 0.04 0.02 98 1018.7
20260901125536 79 12 0.0 3.0 0.00 0.04 0.02 98 1018.7
20260901125036 79 219 0.0 2.0 0.00 0.04 0.02 98 1018.8
20260901124537 79 270 0.0 2.0 0.00 0.04 0.02 99 1018.7
20260901124034 78 274 0.0 2.0 0.00 0.04 0.02 99 1018.7
20260901123534 78 239 0.0 1.0 0.00 0.04 0.02 99 1018.7
20260901123034 78 155 0.0 0.0 0.00 0.04 0.02 100 1018.7
20260901122534 78 155 0.0 0.0 0.00 0.04 0.02 100 1018.6
20260901121536 76 155 0.0 0.0 0.00 0.04 0.02 100 1018.5
20260901121031 75 155 0.0 0.0 0.00 0.04 0.02 100 1018.5
20260901120529 74 155 0.0 0.0 0.00 0.04 0.02 100 1018.5
20260901120030 74 155 0.0 0.0 0.00 0.04 0.02 100 1018.5
20260901115530 73 155 0.0 0.0 0.00 0.04 0.02 100 1018.4
20260901115025 72 155 0.0 0.0 0.00 0.04 0.02 100 1018.4
20260901114525 72 155 0.0 0.0 0.00 0.04 0.02 100 1018.3
20260901114024 72 155 0.0 0.0 0.00 0.04 0.02 100 1018.3
20260901113528 71 155 0.0 0.0 0.00 0.04 0.02 100 1018.2
20260901113025 71 155 0.0 0.0 0.00 0.04 0.02 100 1018.2
20260901112524 70 155 0.0 0.0 0.00 0.00 0.02 100 1018.2
20260901111524 70 155 0.0 0.0 0.01 0.04 0.02 100 1018.2
20260901111023 70 155 0.0 0.0 0.01 0.04 0.02 100 1018.1
20260901110525 69 155 0.0 0.0 0.01 0.04 0.02 100 1018.1
20260901110025 69 155 0.0 0.0 0.00 0.00 0.02 100 1018.1
20260901105524 69 155 0.0 0.0 0.01 0.04 0.02 100 1018.1
20260901105026 69 155 0.0 0.0 0.01 0.04 0.02 100 1017.9
20260901104523 69 155 0.0 0.0 0.01 0.04 0.02 100 1017.9
20260901104023 69 155 0.0 0.0 0.01 0.04 0.02 100 1017.8
20260901103523 69 155 0.0 0.0 0.01 0.04 0.02 100 1017.6
20260901103023 69 155 0.0 0.0 0.01 0.04 0.02 100 1017.6
20260901102522 69 155 0.0 0.0 0.01 0.04 0.02 100 1017.6
20260901101529 70 155 0.0 0.0 0.00 0.03 0.01 100 1017.7
20260901101027 70 155 0.0 0.0 0.00 0.03 0.01 100 1017.6
20260901100529 70 155 0.0 0.0 0.00 0.03 0.01 100 1017.6
20260901100024 70 155 0.0 0.0 0.00 0.03 0.01 100 1017.7
20260901095524 70 155 0.0 0.0 0.00 0.03 0.01 100 1017.6
20260901095024 70 155 0.0 0.0 0.00 0.03 0.01 100 1017.6
20260901094535 69 155 0.0 0.0 0.00 0.03 0.01 100 1017.6
20260901094024 70 155 0.0 0.0 0.00 0.03 0.01 100 1017.6
20260901093523 70 155 0.0 0.0 0.00 0.03 0.01 100 1017.5
20260901093023 70 155 0.0 0.0 0.00 0.03 0.01 100 1017.5
20260901092522 70 155 0.0 0.0 0.00 0.03 0.01 100 1017.5
20260901091520 70 155 0.0 0.0 0.00 0.03 0.01 100 1017.7
20260901091020 70 155 0.0 0.0 0.00 0.03 0.01 100 1017.7
20260901090519 70 155 0.0 0.0 0.00 0.03 0.01 100 1017.7
20260901090018 70 155 0.0 0.0 0.00 0.03 0.01 100 1017.6
20260901085521 70 155 0.0 0.0 0.00 0.03 0.01 100 1017.6
20260901085019 70 155 0.0 0.0 0.00 0.03 0.01 100 1017.7
20260901084518 70 155 0.0 0.0 0.00 0.03 0.01 100 1017.7
20260901084018 70 155 0.0 0.0 0.00 0.03 0.01 100 1017.7
20260901083518 70 155 0.0 0.0 0.00 0.03 0.01 100 1017.7
20260901083018 70 155 0.0 0.0 0.00 0.03 0.01 100 1017.7
20260901082517 70 155 0.0 0.0 0.00 0.03 0.01 100 1017.7
20260901081516 70 155 0.0 0.0 0.00 0.03 0.01 100 1017.8
20260901081016 70 155 0.0 0.0 0.00 0.03 0.01 100 1017.8
20260901080516 70 155 0.0 0.0 0.00 0.03 0.01 100 1017.8
20260901080018 70 155 0.0 0.0 0.00 0.03 0.01 100 1017.9
20260901075516 70 155 0.0 0.0 0.00 0.03 0.01 100 1018.0
20260901075019 70 155 0.0 0.0 0.01 0.03 0.01 100 1017.9
20260901074516 70 155 0.0 0.0 0.01 0.03 0.01 100 1017.9
20260901074015 70 155 0.0 0.0 0.01 0.03 0.01 100 1017.9
20260901073515 70 155 0.0 0.0 0.01 0.03 0.01 100 1017.8
20260901073013 70 155 0.0 0.0 0.01 0.03 0.01 100 1017.8
20260901072513 70 155 0.0 0.0 0.01 0.03 0.01 100 1017.9
20260901071514 70 155 0.0 0.0 0.01 0.03 0.01 100 1017.9
20260901071013 70 155 0.0 0.0 0.01 0.03 0.01 100 1017.9
20260901070513 71 155 0.0 0.0 0.01 0.03 0.01 100 1017.9
20260901070013 71 155 0.0 0.0 0.01 0.03 0.01 100 1017.8
20260901065513 71 155 0.0 0.0 0.01 0.03 0.01 100 1017.9
20260901065013 71 155 0.0 0.0 0.01 0.03 0.01 100 1017.9
20260901064518 71 155 0.0 0.0 0.00 0.02 0.00 100 1017.9
20260901064012 71 155 0.0 0.0 0.00 0.02 0.00 100 1018.0
20260901063512 71 155 0.0 0.0 0.00 0.02 0.00 100 1018.0
20260901063013 71 155 0.0 0.0 0.00 0.02 0.00 100 1018.0
20260901062510 71 155 0.0 0.0 0.00 0.02 0.00 100 1018.1
20260901061509 71 155 0.0 0.0 0.00 0.02 0.00 99 1018.1
20260901061009 71 155 0.0 0.0 0.00 0.02 0.00 100 1018.2
20260901060511 71 155 0.0 0.0 0.00 0.02 0.00 100 1018.2
20260901060008 71 155 0.0 0.0 0.00 0.02 0.00 100 1018.3
20260901055507 71 155 0.0 0.0 0.00 0.02 0.00 100 1018.3
20260901055007 71 155 0.0 0.0 0.00 0.02 0.00 100 1018.3
20260901054506 71 155 0.0 0.0 0.00 0.02 0.00 100 1018.3
20260901054006 71 155 0.0 0.0 0.00 0.02 0.00 99 1018.4
20260901053506 71 155 0.0 0.0 0.00 0.02 0.00 99 1018.4
20260901053006 71 155 0.0 0.0 0.00 0.02 0.00 99 1018.4
20260901052504 72 155 0.0 0.0 0.00 0.02 0.00 99 1018.5
20260901051503 72 155 0.0 0.0 0.00 0.02 0.00 100 1018.6
20260901051003 72 155 0.0 0.0 0.00 0.02 0.00 99 1018.7
20260901050504 72 155 0.0 0.0 0.00 0.02 0.00 99 1018.8
20260901050003 72 155 0.0 0.0 0.00 0.02 0.00 99 1018.8
20260901045502 72 155 0.0 0.0 0.00 0.02 0.00 99 1018.7
20260901045002 72 155 0.0 0.0 0.00 0.02 0.00 99 1018.8
20260901044505 72 155 0.0 0.0 0.00 0.02 0.00 99 1018.8
20260901044001 72 155 0.0 0.0 0.00 0.02 0.00 99 1018.7
20260901043501 72 155 0.0 0.0 0.00 0.02 0.00 99 1018.7
20260901043001 72 155 0.0 0.0 0.00 0.02 0.00 99 1018.6
20260901042600 72 155 0.0 0.0 0.00 0.02 0.00 100 1018.6
20260901041605 72 155 0.0 0.0 0.00 0.02 0.00 99 1018.6
20260901041102 72 155 0.0 0.0 0.00 0.02 0.00 99 1018.7
20260901040601 72 155 0.0 0.0 0.00 0.02 0.00 99 1018.6
20260901040058 72 155 0.0 0.0 0.00 0.02 0.00 99 1018.6
20260901035558 72 155 0.0 0.0 0.00 0.02 0.02 99 1018.6
20260901035057 72 155 0.0 0.0 0.00 0.02 0.02 99 1018.5
20260901034557 73 155 0.0 0.0 0.00 0.02 0.02 99 1018.6
20260901034057 72 155 0.0 0.0 0.00 0.02 0.02 99 1018.6
20260901033556 73 155 0.0 0.0 0.00 0.02 0.02 99 1018.6
20260901033116 73 155 0.0 0.0 0.00 0.02 0.02 99 1018.6
20260901032559 73 155 0.0 0.0 0.00 0.02 0.02 99 1018.5
20260901031557 73 155 0.0 0.0 0.00 0.02 0.02 99 1018.5
20260901031055 73 155 0.0 0.0 0.00 0.02 0.02 99 1018.5
20260901030556 73 155 0.0 0.0 0.00 0.02 0.02 99 1018.6
20260901025556 74 155 0.0 0.0 0.00 0.02 0.02 99 1018.6
20260901025056 74 155 0.0 0.0 0.00 0.02 0.02 99 1018.6
20260901024555 73 155 0.0 0.0 0.00 0.02 0.02 99 1018.6
20260901024054 74 155 0.0 0.0 0.00 0.02 0.02 99 1018.6
20260901023554 74 155 0.0 0.0 0.00 0.02 0.02 99 1018.6
20260901023054 74 155 0.0 0.0 0.00 0.02 0.02 99 1018.6
20260901022554 74 155 0.0 0.0 0.00 0.02 0.02 99 1018.6
20260901021602 74 155 0.0 0.0 0.00 0.02 0.02 99 1018.6
20260901021055 74 155 0.0 0.0 0.00 0.02 0.02 99 1018.6
20260901020555 74 155 0.0 0.0 0.00 0.02 0.02 98 1018.7
20260901020055 74 155 0.0 0.0 0.00 0.02 0.02 99 1018.7
20260901015554 74 155 0.0 0.0 0.00 0.02 0.02 99 1018.6
20260901015054 74 155 0.0 0.0 0.00 0.02 0.02 99 1018.6
20260901014554 74 155 0.0 0.0 0.00 0.02 0.02 98 1018.5
20260901014154 74 155 0.0 0.0 0.00 0.02 0.02 98 1018.5
20260901013554 74 155 0.0 0.0 0.00 0.02 0.02 98 1018.4
20260901013111 74 155 0.0 0.0 0.00 0.02 0.02 98 1018.5
20260901012553 75 155 0.0 0.0 0.00 0.02 0.02 98 1018.4
20260901011611 75 155 0.0 0.0 0.00 0.02 0.02 98 1018.3
20260901011053 75 155 0.0 0.0 0.00 0.02 0.02 98 1018.3
20260901010554 75 155 0.0 0.0 0.00 0.02 0.02 98 1018.2
20260901010110 75 155 0.0 0.0 0.00 0.02 0.02 98 1018.2
20260901005554 75 155 0.0 0.0 0.00 0.02 0.02 97 1018.1
20260901005055 75 155 0.0 0.0 0.00 0.02 0.02 97 1018.1
20260901004553 75 155 0.0 0.0 0.00 0.02 0.02 97 1018.2
20260901004053 75 155 0.0 0.0 0.00 0.02 0.02 97 1018.1
20260901003555 76 155 0.0 0.0 0.00 0.02 0.02 97 1018.1
20260901003053 76 155 0.0 0.0 0.00 0.02 0.02 97 1018.0
20260901002555 76 155 0.0 0.0 0.00 0.02 0.02 96 1018.0
20260901001552 76 155 0.0 0.0 0.00 0.02 0.02 96 1018.0
20260901001052 77 155 0.0 0.0 0.00 0.02 0.02 95 1017.9
20260901000552 77 155 0.0 0.0 0.00 0.02 0.02 95 1018.0
20260901000052 77 155 0.0 0.0 0.00 0.02 0.02 94 1018.0
20260831235552 78 155 0.0 0.0 0.00 0.04 0.02 94 1018.0
20260831235053 78 155 0.0 0.0 0.00 0.04 0.02 93 1018.0
20260831234559 79 155 0.0 0.0 0.00 0.04 0.02 93 1018.1
20260831234051 79 155 0.0 0.0 0.00 0.04 0.02 91 1018.0
20260831233553 80 155 0.0 0.0 0.00 0.04 0.02 90 1018.0
20260831233052 80 155 0.0 0.0 0.00 0.04 0.02 89 1018.0
20260831232552 81 155 0.0 0.0 0.00 0.04 0.02 88 1018.0
20260831231552 82 155 0.0 0.0 0.00 0.04 0.02 87 1018.0
20260831231051 82 155 0.0 0.0 0.00 0.04 0.02 86 1017.9
20260831230554 83 155 0.0 0.0 0.00 0.04 0.02 84 1017.9
20260831230051 84 155 0.0 2.0 0.00 0.04 0.02 83 1017.9
20260831225554 85 158 0.0 3.0 0.00 0.06 0.02 82 1017.9
20260831225050 85 114 0.0 3.0 0.00 0.06 0.02 80 1018.0
20260831224550 86 133 0.0 2.0 0.00 0.06 0.02 82 1018.1
20260831224054 86 127 0.0 2.0 0.00 0.06 0.02 80 1018.1
20260831223554 87 130 0.0 2.0 0.00 0.06 0.02 78 1018.1
20260831223056 87 95 0.0 2.0 0.00 0.06 0.02 81 1018.1
20260831222549 87 95 0.0 2.0 0.00 0.06 0.02 80 1018.1
20260831221603 87 195 0.0 1.0 0.00 0.06 0.02 79 1018.0
20260831221049 87 124 0.0 2.0 0.00 0.06 0.02 79 1017.9
20260831220550 88 242 0.0 2.0 0.00 0.06 0.02 80 1017.9
20260831220050 88 85 0.0 3.0 0.00 0.06 0.02 79 1017.9
20260831215550 88 90 0.0 3.0 0.00 0.10 0.02 79 1017.8
20260831215050 88 131 0.0 1.0 0.00 0.10 0.02 79 1017.8
20260831214558 88 131 0.0 1.0 0.00 0.10 0.02 78 1017.8
20260831214050 88 118 0.0 2.0 0.00 0.10 0.02 82 1017.9
20260831213549 87 118 0.0 2.0 0.00 0.10 0.02 80 1017.9
20260831213049 87 153 0.0 1.0 0.00 0.10 0.02 83 1017.9
20260831212549 87 133 0.0 1.0 0.00 0.10 0.02 83 1017.8
20260831211550 86 153 0.0 3.0 0.00 0.10 0.02 84 1017.7
20260831211048 86 93 0.0 3.0 0.01 0.10 0.02 87 1017.7
20260831210548 86 259 0.0 1.0 0.02 0.10 0.02 89 1017.7
20260831210048 85 259 0.0 2.0 0.02 0.10 0.02 92 1017.7
20260831205549 84 259 0.0 2.0 0.02 0.16 0.02 92 1017.6
20260831205049 84 225 0.0 1.0 0.02 0.16 0.02 93 1017.6
20260831204548 83 100 0.0 0.0 0.02 0.16 0.02 94 1017.6
20260831204051 82 100 0.0 0.0 0.02 0.16 0.02 95 1017.6
20260831203546 81 100 0.0 1.0 0.02 0.16 0.02 93 1017.7
20260831203057 81 100 0.0 1.0 0.02 0.16 0.02 93 1017.8
20260831202545 81 100 0.0 1.0 0.02 0.16 0.02 93 1017.8
20260831201551 82 250 0.0 3.0 0.02 0.16 0.02 91 1018.0
20260831201045 83 256 0.0 3.0 0.02 0.16 0.02 90 1018.1
20260831200546 83 108 0.0 2.0 0.00 0.14 0.00 89 1018.1
20260831200047 84 108 0.0 2.0 0.00 0.14 0.00 87 1018.1
20260831195545 84 89 0.0 2.0 0.00 1.35 0.00 86 1018.1
20260831195044 84 71 0.0 2.0 0.00 1.35 0.00 85 1018.0
20260831194554 84 117 0.0 2.0 0.00 1.35 0.00 85 1017.9
20260831194044 85 117 0.0 2.0 0.00 1.35 0.00 84 1017.9
20260831193544 85 92 1.0 2.0 0.00 1.35 0.00 83 1017.9
20260831193044 85 121 0.0 4.0 0.00 1.35 0.00 83 1017.9